Time,TemperatureF,DewpointF,PressureIn,WindDirection,WindDirectionDegrees,WindSpeedMPH,WindSpeedGustMPH,Humidity,HourlyPrecipIn,Conditions,Clouds,dailyrainin,SoftwareType,DateUTC
2013-04-03 00:05:00,33.7,28.0,25.86,WSW,244,4.0,4.0,80,0.00,,,0.00,weatherlink.com 1.10,2013-04-03 06:05:00,
2013-04-03 00:20:00,32.8,28.0,25.86,WSW,250,3.0,5.0,82,0.00,,,0.00,weatherlink.com 1.10,2013-04-03 06:20:00,
2013-04-03 00:35:00,33.2,28.0,25.86,SW,236,3.0,6.0,82,0.00,,,0.00,weatherlink.com 1.10,2013-04-03 06:35:00,
2013-04-03 00:50:00,33.6,29.0,25.86,West,273,4.0,7.0,82,0.00,,,0.00,weatherlink.com 1.10,2013-04-03 06:50:00,
2013-04-03 01:05:00,32.7,28.0,25.86,WNW,283,3.0,7.0,81,0.00,,,0.00,weatherlink.com 1.10,2013-04-03 07:05:00,
2013-04-03 01:20:00,31.9,28.0,25.86,WNW,292,5.0,7.0,84,0.00,,,0.00,weatherlink.com 1.10,2013-04-03 07:20:00,
2013-04-03 01:35:00,31.7,27.0,25.86,West,274,5.0,6.0,84,0.00,,,0.00,weatherlink.com 1.10,2013-04-03 07:35:00,
2013-04-03 01:50:00,31.0,27.0,25.86,WSW,254,5.0,6.0,84,0.00,,,0.00,weatherlink.com 1.10,2013-04-03 07:50:00,
2013-04-03 02:05:00,31.2,27.0,25.86,West,262,4.0,7.0,85,0.00,,,0.00,weatherlink.com 1.10,2013-04-03 08:05:00,
2013-04-03 02:20:00,30.9,27.0,25.85,West,274,4.0,7.0,85,0.00,,,0.00,weatherlink.com 1.10,2013-04-03 08:20:00,
2013-04-03 02:35:00,30.0,26.0,25.85,WSW,238,4.0,6.0,85,0.00,,,0.00,weatherlink.com 1.10,2013-04-03 08:35:00,
2013-04-03 02:50:00,29.8,26.0,25.85,WSW,251,4.0,6.0,87,0.00,,,0.00,weatherlink.com 1.10,2013-04-03 08:50:00,
2013-04-03 03:20:00,28.7,26.0,25.85,WSW,240,6.0,7.0,89,0.00,,,0.00,weatherlink.com 1.10,2013-04-03 09:20:00,
2013-04-03 03:35:00,29.0,27.0,25.85,WSW,256,4.0,8.0,90,0.00,,,0.00,weatherlink.com 1.10,2013-04-03 09:35:00,
2013-04-03 03:50:00,27.6,25.0,25.85,SW,235,6.0,8.0,89,0.00,,,0.00,weatherlink.com 1.10,2013-04-03 09:50:00,
2013-04-03 04:05:00,27.1,25.0,25.85,SW,218,5.0,5.0,91,0.00,,,0.00,weatherlink.com 1.10,2013-04-03 10:05:00,
2013-04-03 04:21:00,26.3,24.0,25.85,SW,231,7.0,8.0,91,0.00,,,0.00,weatherlink.com 1.10,2013-04-03 10:21:00,
2013-04-03 04:36:00,26.7,25.0,25.84,WSW,248,7.0,7.0,93,0.00,,,0.00,weatherlink.com 1.10,2013-04-03 10:36:00,
2013-04-03 04:51:00,26.8,25.0,25.84,SW,232,4.0,7.0,92,0.00,,,0.00,weatherlink.com 1.10,2013-04-03 10:51:00,
2013-04-03 05:06:00,26.3,25.0,25.85,WSW,243,5.0,6.0,93,0.00,,,0.00,weatherlink.com 1.10,2013-04-03 11:06:00,
2013-04-03 05:21:00,25.8,24.0,25.85,WSW,255,6.0,8.0,92,0.00,,,0.00,weatherlink.com 1.10,2013-04-03 11:21:00,
2013-04-03 05:36:00,25.6,24.0,25.85,SSW,197,4.0,7.0,93,0.00,,,0.00,weatherlink.com 1.10,2013-04-03 11:36:00,
2013-04-03 05:51:00,25.7,24.0,25.86,WSW,237,7.0,8.0,93,0.00,,,0.00,weatherlink.com 1.10,2013-04-03 11:51:00,
2013-04-03 06:06:00,25.9,24.0,25.86,WSW,250,5.0,9.0,93,0.00,,,0.00,weatherlink.com 1.10,2013-04-03 12:06:00,
2013-04-03 06:21:00,25.4,23.0,25.86,WSW,252,7.0,10.0,92,0.00,,,0.00,weatherlink.com 1.10,2013-04-03 12:21:00,
2013-04-03 08:06:00,33.2,33.0,25.86,SSW,212,12.0,17.0,97,0.00,,,0.00,weatherlink.com 1.10,2013-04-03 14:06:00,
2013-04-03 08:21:00,33.9,33.0,25.86,SW,228,12.0,16.0,97,0.00,,,0.00,weatherlink.com 1.10,2013-04-03 14:21:00,
2013-04-03 08:36:00,34.7,34.0,25.86,West,277,7.0,17.0,96,0.00,,,0.00,weatherlink.com 1.10,2013-04-03 14:36:00,
2013-04-03 08:51:00,35.9,34.0,25.86,SW,235,8.0,16.0,94,0.00,,,0.00,weatherlink.com 1.10,2013-04-03 14:51:00,
2013-04-03 09:21:00,39.6,36.0,25.85,WSW,237,13.0,16.0,85,0.00,,,0.00,weatherlink.com 1.10,2013-04-03 15:21:00,
2013-04-03 09:36:00,41.4,36.0,25.86,West,262,8.0,15.0,80,0.00,,,0.00,weatherlink.com 1.10,2013-04-03 15:36:00,
2013-04-03 09:51:00,42.3,36.0,25.85,SW,235,10.0,17.0,78,0.00,,,0.00,weatherlink.com 1.10,2013-04-03 15:51:00,
2013-04-03 10:06:00,43.2,36.0,25.85,WSW,257,9.0,20.0,75,0.00,,,0.00,weatherlink.com 1.10,2013-04-03 16:06:00,
2013-04-03 10:36:00,45.5,35.0,25.84,West,267,14.0,20.0,68,0.00,,,0.00,weatherlink.com 1.10,2013-04-03 16:36:00,
2013-04-03 10:51:00,46.9,36.0,25.84,West,259,14.0,20.0,65,0.00,,,0.00,weatherlink.com 1.10,2013-04-03 16:51:00,
2013-04-03 11:07:00,48.9,35.0,25.84,SW,225,20.0,20.0,60,0.00,,,0.00,weatherlink.com 1.10,2013-04-03 17:07:00,
2013-04-03 11:22:00,50.0,36.0,25.83,WSW,255,13.0,17.0,58,0.00,,,0.00,weatherlink.com 1.10,2013-04-03 17:22:00,
2013-04-03 11:37:00,51.4,36.0,25.82,West,262,14.0,20.0,55,0.00,,,0.00,weatherlink.com 1.10,2013-04-03 17:37:00,
2013-04-03 11:52:00,52.6,35.0,25.82,SW,231,14.0,18.0,52,0.00,,,0.00,weatherlink.com 1.10,2013-04-03 17:52:00,
2013-04-03 12:07:00,53.6,35.0,25.82,West,262,7.0,18.0,50,0.00,,,0.00,weatherlink.com 1.10,2013-04-03 18:07:00,
2013-04-03 12:22:00,55.1,34.0,25.82,WSW,249,13.0,18.0,46,0.00,,,0.00,weatherlink.com 1.10,2013-04-03 18:22:00,
2013-04-03 12:37:00,55.9,35.0,25.80,WNW,290,10.0,17.0,45,0.00,,,0.00,weatherlink.com 1.10,2013-04-03 18:37:00,
2013-04-03 12:52:00,56.3,35.0,25.80,WSW,238,8.0,18.0,45,0.00,,,0.00,weatherlink.com 1.10,2013-04-03 18:52:00,
2013-04-03 13:07:00,57.2,33.0,25.79,WSW,243,17.0,20.0,41,0.00,,,0.00,weatherlink.com 1.10,2013-04-03 19:07:00,
2013-04-03 13:22:00,58.5,33.0,25.79,WSW,240,11.0,17.0,38,0.00,,,0.00,weatherlink.com 1.10,2013-04-03 19:22:00,
2013-04-03 13:37:00,59.5,32.0,25.79,WSW,243,9.0,15.0,35,0.00,,,0.00,weatherlink.com 1.10,2013-04-03 19:37:00,
2013-04-03 13:52:00,59.9,30.0,25.78,SSW,203,7.0,15.0,32,0.00,,,0.00,weatherlink.com 1.10,2013-04-03 19:52:00,
2013-04-03 14:07:00,60.9,27.0,25.78,West,264,10.0,17.0,28,0.00,,,0.00,weatherlink.com 1.10,2013-04-03 20:07:00,
2013-04-03 14:22:00,61.8,29.0,25.78,SSW,212,8.0,19.0,29,0.00,,,0.00,weatherlink.com 1.10,2013-04-03 20:22:00,
2013-04-03 14:37:00,61.8,28.0,25.77,South,170,8.0,16.0,28,0.00,,,0.00,weatherlink.com 1.10,2013-04-03 20:37:00,
2013-04-03 14:52:00,63.3,29.0,25.77,WSW,256,6.0,15.0,27,0.00,,,0.00,weatherlink.com 1.10,2013-04-03 20:52:00,
2013-04-03 15:07:00,63.2,28.0,25.77,West,263,5.0,14.0,26,0.00,,,0.00,weatherlink.com 1.10,2013-04-03 21:07:00,
2013-04-03 15:22:00,64.7,28.0,25.77,West,262,7.0,12.0,25,0.00,,,0.00,weatherlink.com 1.10,2013-04-03 21:22:00,
2013-04-03 15:37:00,64.4,28.0,25.76,West,266,11.0,14.0,25,0.00,,,0.00,weatherlink.com 1.10,2013-04-03 21:37:00,
2013-04-03 15:52:00,65.3,26.0,25.76,West,277,4.0,11.0,23,0.00,,,0.00,weatherlink.com 1.10,2013-04-03 21:52:00,
2013-04-03 16:08:00,65.9,27.0,25.75,SSW,206,7.0,16.0,23,0.00,,,0.00,weatherlink.com 1.10,2013-04-03 22:08:00,
2013-04-03 16:23:00,66.2,25.0,25.75,WSW,246,3.0,11.0,21,0.00,,,0.00,weatherlink.com 1.10,2013-04-03 22:23:00,
2013-04-03 16:38:00,66.1,25.0,25.75,WSW,258,6.0,14.0,21,0.00,,,0.00,weatherlink.com 1.10,2013-04-03 22:38:00,
2013-04-03 16:53:00,66.2,25.0,25.75,SSW,204,3.0,12.0,21,0.00,,,0.00,weatherlink.com 1.10,2013-04-03 22:53:00,
2013-04-03 17:08:00,66.4,24.0,25.74,West,264,3.0,12.0,20,0.00,,,0.00,weatherlink.com 1.10,2013-04-03 23:08:00,
2013-04-03 17:23:00,66.7,25.0,25.74,SW,226,7.0,12.0,21,0.00,,,0.00,weatherlink.com 1.10,2013-04-03 23:23:00,
2013-04-03 17:38:00,65.6,26.0,25.74,South,174,5.0,14.0,22,0.00,,,0.00,weatherlink.com 1.10,2013-04-03 23:38:00,
2013-04-03 17:53:00,65.1,26.0,25.74,SSW,204,8.0,12.0,23,0.00,,,0.00,weatherlink.com 1.10,2013-04-03 23:53:00,
2013-04-03 18:23:00,61.5,30.0,25.74,SSW,207,11.0,18.0,31,0.00,,,0.00,weatherlink.com 1.10,2013-04-04 00:23:00,
2013-04-03 18:38:00,60.0,31.0,25.74,SSE,167,10.0,18.0,33,0.00,,,0.00,weatherlink.com 1.10,2013-04-04 00:38:00,
2013-04-03 18:53:00,59.0,31.0,25.75,South,177,5.0,15.0,35,0.00,,,0.00,weatherlink.com 1.10,2013-04-04 00:53:00,
2013-04-03 19:08:00,57.3,32.0,25.76,SSE,162,8.0,12.0,38,0.00,,,0.00,weatherlink.com 1.10,2013-04-04 01:08:00,
2013-04-03 19:23:00,55.8,32.0,25.76,SSE,155,9.0,15.0,41,0.00,,,0.00,weatherlink.com 1.10,2013-04-04 01:23:00,
2013-04-03 19:38:00,55.2,32.0,25.75,South,174,11.0,19.0,42,0.00,,,0.00,weatherlink.com 1.10,2013-04-04 01:38:00,
2013-04-03 19:53:00,54.3,32.0,25.75,South,187,12.0,14.0,43,0.00,,,0.00,weatherlink.com 1.10,2013-04-04 01:53:00,
2013-04-03 20:08:00,52.9,32.0,25.77,SW,218,10.0,15.0,46,0.00,,,0.00,weatherlink.com 1.10,2013-04-04 02:08:00,
2013-04-03 20:23:00,50.7,32.0,25.78,SE,142,6.0,10.0,49,0.00,,,0.00,weatherlink.com 1.10,2013-04-04 02:23:00,
2013-04-03 20:38:00,49.7,33.0,25.78,SSW,200,8.0,12.0,52,0.00,,,0.00,weatherlink.com 1.10,2013-04-04 02:38:00,
2013-04-03 20:53:00,50.0,33.0,25.79,SW,225,10.0,14.0,52,0.00,,,0.00,weatherlink.com 1.10,2013-04-04 02:53:00,
2013-04-03 21:08:00,48.5,33.0,25.80,SW,215,6.0,11.0,55,0.00,,,0.00,weatherlink.com 1.10,2013-04-04 03:08:00,
2013-04-03 21:23:00,47.0,32.0,25.81,SW,236,3.0,9.0,56,0.00,,,0.00,weatherlink.com 1.10,2013-04-04 03:23:00,
2013-04-03 21:38:00,45.3,32.0,25.81,SW,235,4.0,5.0,59,0.00,,,0.00,weatherlink.com 1.10,2013-04-04 03:38:00,
2013-04-03 21:54:00,45.1,32.0,25.81,WSW,256,2.0,5.0,61,0.00,,,0.00,weatherlink.com 1.10,2013-04-04 03:54:00,
2013-04-03 22:08:00,44.5,32.0,25.81,West,265,2.0,4.0,61,0.00,,,0.00,weatherlink.com 1.10,2013-04-04 04:08:00,
2013-04-03 22:23:00,43.6,32.0,25.82,WSW,253,0.0,3.0,63,0.00,,,0.00,weatherlink.com 1.10,2013-04-04 04:23:00,
2013-04-03 22:39:00,39.7,29.0,25.83,NNE,26,2.0,3.0,65,0.00,,,0.00,weatherlink.com 1.10,2013-04-04 04:39:00,
2013-04-03 22:53:00,38.9,29.0,25.83,ENE,58,2.0,3.0,67,0.00,,,0.00,weatherlink.com 1.10,2013-04-04 04:53:00,
2013-04-03 23:08:00,40.5,30.0,25.84,ENE,71,5.0,6.0,67,0.00,,,0.00,weatherlink.com 1.10,2013-04-04 05:08:00,
2013-04-03 23:23:00,40.1,31.0,25.84,ESE,105,5.0,7.0,70,0.00,,,0.00,weatherlink.com 1.10,2013-04-04 05:23:00,
2013-04-03 23:38:00,40.3,32.0,25.82,ESE,111,6.0,7.0,71,0.00,,,0.00,weatherlink.com 1.10,2013-04-04 05:38:00,
2013-04-03 23:53:00,39.7,32.0,25.84,ESE,102,6.0,7.0,73,0.00,,,0.00,weatherlink.com 1.10,2013-04-04 05:53:00,